FW4185 Weather Reports


Display with metric or nautical units.
time (UTC)temp
F
wind
direction
speed
MPH
gust
MPH
rain 1hr
in
rain 24hr
in
rain mn
in
humidity
%
barometer
mb
20260901074448 0 353 5.0 5.0 0.00 0.00 0.01
20260901073543 73 355 4.0 7.0 0.00 0.00 0.01 79 1012.9
20260901072903 73 356 0.0 6.0 0.00 0.00 0.01 80 1013.0
20260901072224 73 356 1.0 6.0 0.00 0.00 0.01 79 1013.1
20260901071548 73 355 2.0 6.0 0.00 0.00 0.01 79 1013.1
20260901070903 73 354 1.0 8.0 0.00 0.00 0.01 78 1013.2
20260901070222 73 353 0.0 7.0 0.00 0.00 0.01 78 1013.2
20260901065544 73 354 4.0 7.0 0.00 0.00 0.01 79 1013.4
20260901064903 0 354 3.0 6.0 0.00 0.00 0.01
20260901064113 0 352 6.0 4.0 0.00 0.00 0.01
20260901063213 0 352 4.0 5.0 0.00 0.00 0.01
20260901062423 73 354 6.0 9.0 0.00 0.00 0.01 79 1013.8
20260901061743 73 354 5.0 10.0 0.00 0.00 0.01 80 1013.9
20260901061105 0 352 7.0 8.0 0.00 0.00 0.01
20260901060315 73 351 7.0 11.0 0.00 0.00 0.01 79 1014.1
20260901055635 72 355 6.0 10.0 0.00 0.00 0.01 81 1014.1
20260901054955 72 355 4.0 8.0 0.00 0.00 0.01 83 1014.1
20260901054314 72 353 5.0 9.0 0.00 0.00 0.01 83 1014.2
20260901053635 72 356 6.0 8.0 0.00 0.00 0.01 83 1014.3
20260901052955 72 353 1.0 4.0 0.00 0.00 0.01 82 1014.3
20260901052205 72 357 2.0 8.0 0.00 0.00 0.01 82 1014.3
20260901051525 71 355 2.0 8.0 0.00 0.00 0.01 82 1014.4
20260901050845 71 355 1.0 5.0 0.00 0.00 0.01 82 1014.4
20260901050206 71 353 0.0 0.0 0.00 0.00 0.01 83 1014.6
20260901045526 0 356 0.0 0.0 0.00 0.00 0.01
20260901044147 71 354 0.0 3.0 0.00 0.00 0.01 86 1014.7
20260901043508 71 356 0.0 0.0 0.00 0.00 0.01 87 1014.8
20260901042827 71 358 0.0 4.0 0.00 0.00 0.01 87 1014.8
20260901042148 71 356 0.0 6.0 0.00 0.00 0.01 88 1014.9
20260901041508 71 356 1.0 6.0 0.00 0.00 0.01 87 1015.0
20260901040829 0 357 6.0 3.0 0.00 0.00 0.01
20260901040041 0 356 1.0 5.0 0.00 0.00 0.01
20260901035252 70 354 0.0 0.0 0.00 0.00 0.01 87 1015.0
20260901034611 71 356 0.0 0.0 0.00 0.00 0.01 85 1014.9
20260901033932 0 357 0.0 0.0 0.00 0.00 0.00
20260901033139 71 354 0.0 0.0 0.00 0.00 0.00 85 1014.9
20260901032500 0 353 0.0 0.0 0.00 0.00 0.00
20260901031710 71 355 0.0 0.0 0.00 0.00 0.00 85 1015.1
20260901031029 71 355 0.0 0.0 0.00 0.00 0.00 84 1015.1
20260901030349 0 355 0.0 0.0 0.00 0.00 0.25
20260901025339 0 359 0.0 0.0 0.00 0.00 0.25
20260901024545 71 357 0.0 0.0 0.00 0.00 0.25 83 1015.3
20260901023905 71 356 0.0 0.0 0.00 0.00 0.25 83 1015.6
20260901023226 71 355 0.0 0.0 0.00 0.00 0.25 83 1015.7
20260901022555 71 358 0.0 0.0 0.00 0.00 0.25 84 1015.5
20260901021905 71 357 0.0 0.0 0.00 0.00 0.25 85 1015.6
20260901021226 0 355 0.0 0.0 0.00 0.00 0.25
20260901020435 71 356 0.0 0.0 0.00 0.00 0.25 86 1015.9
20260901015755 71 355 0.0 0.0 0.00 0.00 0.25 85 1016.0
20260901014954 72 355 0.0 0.0 0.00 0.00 0.25 85 1016.0
20260901014315 71 354 0.0 0.0 0.00 0.00 0.25 85 1016.0
20260901013634 71 356 0.0 0.0 0.00 0.00 0.25 85 1016.0
20260901012954 0 353 0.0 0.0 0.00 0.00 0.25
20260901012203 0 359 0.0 0.0 0.00 0.00 0.25
20260901011412 72 353 0.0 0.0 0.00 0.00 0.25 85 1016.0
20260901010737 0 355 0.0 0.0 0.00 0.00 0.25
20260901005723 72 355 0.0 0.0 0.00 0.00 0.25 85 1016.0
20260901005038 72 355 0.0 0.0 0.00 0.00 0.25 85 1016.0
20260901004403 72 356 0.0 0.0 0.00 0.00 0.25 85 1015.8
20260901003728 0 357 0.0 0.0 0.00 0.00 0.25
20260901003010 72 356 0.0 6.0 0.00 0.00 0.25 85 1015.8
20260901002330 0 352 1.0 7.0 0.00 0.00 0.25
20260901001309 72 356 0.0 4.0 0.00 0.00 0.25 84 1015.8
20260901000619 72 354 0.0 7.0 0.00 0.00 0.25 83 1015.6
20260831235939 0 355 6.0 5.0 0.00 0.00 0.25
20260831235145 72 354 0.0 6.0 0.00 0.00 0.25 83 1015.7
20260831234507 0 356 5.0 6.0 0.00 0.00 0.25
20260831233425 72 356 7.0 9.0 0.00 0.00 0.25 83 1015.7
20260831232745 72 353 6.0 6.0 0.00 0.00 0.25 83 1015.8
20260831231954 72 352 5.0 10.0 0.00 0.00 0.25 82 1015.6
20260831231314 0 355 6.0 8.0 0.00 0.00 0.25
20260831230524 73 354 6.0 9.0 0.00 0.00 0.25 83 1015.7
20260831225844 0 355 4.0 6.0 0.00 0.00 0.25
20260831224727 73 353 2.0 9.0 0.00 0.00 0.25 83 1016.0
20260831224058 0 354 6.0 5.0 0.00 0.00 0.25
20260831223258 0 358 5.0 6.0 0.00 0.00 0.25
20260831222505 73 352 9.0 7.0 0.00 0.00 0.25 80 1016.1
20260831221430 73 358 5.0 3.0 0.00 0.00 0.25 81 1016.1
20260831220637 74 355 3.0 10.0 0.00 0.00 0.25 80 1016.4
20260831215957 74 354 7.0 10.0 0.00 0.00 0.25 80 1016.4
20260831215317 74 355 6.0 11.0 0.00 0.00 0.25 80 1016.4
20260831214636 74 355 6.0 11.0 0.00 0.00 0.25 81 1016.4
20260831213956 73 356 7.0 12.0 0.00 0.00 0.25 83 1016.4
20260831213316 73 351 7.0 15.0 0.00 0.00 0.25 84 1016.3
20260831212642 74 353 9.0 15.0 0.00 0.00 0.25 84 1016.4
20260831212002 74 353 9.0 14.0 0.00 0.00 0.25 84 1016.4
20260831211322 74 355 7.0 11.0 0.00 0.00 0.25 84 1016.3
20260831210647 0 355 7.0 6.0 0.00 0.00 0.25
20260831205906 74 356 7.0 14.0 0.00 0.00 0.25 85 1016.1
20260831205230 74 350 6.0 12.0 0.00 0.00 0.25 85 1016.0
20260831204550 74 357 7.0 11.0 0.00 0.00 0.25 84 1016.0
20260831203905 74 353 8.0 7.0 0.00 0.00 0.25 85 1016.0
20260831203207 73 353 8.0 14.0 0.00 0.00 0.25 86 1015.9
20260831202517 73 356 5.0 14.0 0.00 0.00 0.25 87 1015.9
20260831201837 73 357 8.0 14.0 0.00 0.00 0.25 86 1016.1
20260831201157 73 355 5.0 10.0 0.00 0.00 0.25 86 1016.2
20260831200523 0 355 6.0 7.0 0.00 0.00 0.25
20260831195728 74 354 9.0 15.0 0.00 0.00 0.25 83 1016.3
20260831195048 74 357 6.0 9.0 0.00 0.00 0.25 82 1016.2
20260831194423 74 357 0.0 5.0 0.00 0.00 0.25 81 1016.3
20260831193728 0 353 0.0 3.0 0.00 0.00 0.25
20260831192707 0 350 0.0 4.0 0.00 0.00 0.25
20260831191912 74 357 0.0 0.0 0.00 0.00 0.25 79 1016.5
20260831191227 0 357 0.0 0.0 0.00 0.00 0.25
20260831190428 74 355 0.0 0.0 0.00 0.00 0.25 81 1016.6
20260831185747 73 355 0.0 0.0 0.00 0.00 0.25 81 1016.6
20260831185106 73 355 0.0 0.0 0.00 0.00 0.25 82 1016.7
20260831184426 73 354 0.0 0.0 0.00 0.00 0.25 83 1016.8
20260831183747 73 357 0.0 0.0 0.00 0.00 0.25 84 1016.8
20260831183107 73 353 0.0 0.0 0.00 0.00 0.25 83 1016.8
20260831182438 73 356 0.0 0.0 0.00 0.00 0.25 80 1016.8
20260831181748 0 355 0.0 2.0 0.00 0.00 0.25
20260831180957 73 350 0.0 0.0 0.00 0.00 0.25 80 1017.0
20260831180318 0 357 0.0 0.0 0.00 0.00 0.25
20260831175058 74 355 0.0 7.0 0.00 0.00 0.25 76 1017.1
20260831174414 0 354 2.0 5.0 0.00 0.00 0.25
20260831173515 74 354 0.0 4.0 0.00 0.00 0.25 77 1016.9
20260831172826 0 354 0.0 0.0 0.00 0.00 0.25
20260831171600 74 356 1.0 9.0 0.00 0.00 0.25 75 1016.9
20260831170918 74 352 3.0 9.0 0.00 0.00 0.25 77 1017.0
20260831170239 0 356 0.0 8.0 0.00 0.00 0.25
20260831165320 73 353 0.0 6.0 0.00 0.00 0.25 77 1017.3
20260831164515 73 357 1.0 7.0 0.00 0.00 0.25 80 1017.3
20260831163720 72 356 0.0 0.0 0.00 0.00 0.25 84 1017.2
20260831162923 71 358 0.0 0.0 0.00 0.00 0.25 87 1017.3
20260831162232 70 358 0.0 6.0 0.00 0.00 0.25 88 1017.3
20260831161553 0 357 1.0 6.0 0.00 0.00 0.25
20260831160513 68 356 0.0 2.0 0.00 0.00 0.25 88 1017.7
20260831155823 68 358 0.0 0.0 0.00 0.00 0.25 88 1017.8
20260831155143 0 356 0.0 0.0 0.00 0.00 0.24
20260831154403 68 355 0.0 0.0 0.00 0.00 0.24 91 1017.8
20260831153714 0 350 0.0 0.0 0.00 0.00 0.24
20260831152928 0 354 0.0 0.0 0.00 0.00 0.24
20260831152133 0 356 0.0 0.0 0.00 0.00 0.23
20260831151314 68 354 0.0 0.0 0.00 0.00 0.23 92 1017.9
20260831150634 0 356 0.0 0.0 0.00 0.00 0.22
20260831145830 0 357 0.0 0.0 0.00 0.00 0.21
20260831145039 67 355 0.0 0.0 0.00 0.00 0.20 93 1017.5
20260831144359 67 358 0.0 0.0 0.00 0.00 0.19 92 1017.6
20260831143729 67 356 0.0 0.0 0.00 0.00 0.18 92 1017.7
20260831143040 0 356 0.0 0.0 0.00 0.00 0.17
20260831142228 0 355 0.0 0.0 0.00 0.00 0.16
20260831141453 0 357 0.0 0.0 0.00 0.00 0.12
20260831140649 0 355 0.0 0.0 0.00 0.00 0.11
20260831135830 0 355 0.0 0.0 0.00 0.00 0.10
20260831134753 66 355 0.0 6.0 0.00 0.00 0.09 90 1017.6
20260831134113 0 355 2.0 5.0 0.00 0.00 0.09
20260831133323 67 358 0.0 9.0 0.00 0.00 0.09 89 1017.7
20260831132644 67 356 1.0 9.0 0.00 0.00 0.09 90 1017.6
20260831132003 67 358 2.0 8.0 0.00 0.00 0.09 89 1017.6
20260831131323 67 358 3.0 8.0 0.00 0.00 0.09 89 1017.6
20260831130645 67 351 5.0 8.0 0.00 0.00 0.09 88 1017.7
20260831130008 67 359 0.0 0.0 0.00 0.00 0.09 88 1017.7
20260831125323 67 356 0.0 0.0 0.00 0.00 0.09 87 1017.5
20260831124654 0 355 0.0 2.0 0.00 0.00 0.09
20260831123936 67 360 0.0 5.0 0.00 0.00 0.09 87 1017.4
20260831123256 67 356 0.0 5.0 0.00 0.00 0.09 88 1017.4
20260831122616 67 357 0.0 0.0 0.00 0.00 0.09 88 1017.4
20260831121936 67 356 0.0 0.0 0.00 0.00 0.09 89 1017.4
20260831121256 67 357 0.0 0.0 0.00 0.00 0.09 89 1017.5
20260831120626 0 352 0.0 0.0 0.00 0.00 0.09
20260831115800 67 357 0.0 0.0 0.00 0.00 0.09 89 1017.9
20260831115119 66 357 0.0 0.0 0.00 0.00 0.09 89 1017.9
20260831114439 66 357 0.0 0.0 0.00 0.00 0.09 89 1017.9
20260831113759 66 356 0.0 0.0 0.00 0.00 0.09 90 1017.9
20260831113119 66 358 0.0 0.0 0.00 0.00 0.09 89 1017.7
20260831112439 0 357 0.0 0.0 0.00 0.00 0.09
20260831111511 66 358 0.0 0.0 0.00 0.00 0.08 90 1017.7
20260831110830 66 354 0.0 0.0 0.00 0.00 0.08 89 1017.8
20260831110151 0 356 0.0 0.0 0.00 0.00 0.08
20260831105336 66 356 0.0 0.0 0.00 0.00 0.08 89 1017.9
20260831104647 66 355 0.0 0.0 0.00 0.00 0.08 89 1017.8
20260831104022 0 353 0.0 0.0 0.00 0.00 0.08
20260831103210 66 356 0.0 0.0 0.00 0.00 0.08 90 1018.0
20260831102530 66 357 0.0 0.0 0.00 0.00 0.08 89 1017.8
20260831101850 66 356 0.0 0.0 0.00 0.00 0.08 90 1017.7
20260831101211 66 354 0.0 2.0 0.00 0.00 0.08 90 1017.7
20260831100530 66 359 0.0 0.0 0.00 0.00 0.08 91 1017.7
20260831095850 66 356 0.0 0.0 0.00 0.00 0.08 91 1017.8
20260831095211 0 357 0.0 0.0 0.00 0.00 0.08
20260831094419 66 357 0.0 5.0 0.00 0.00 0.08 92 1017.8
20260831093740 66 356 0.0 4.0 0.00 0.00 0.08 92 1017.7
20260831093059 66 357 0.0 5.0 0.00 0.00 0.08 92 1017.7
20260831092420 66 359 0.0 5.0 0.00 0.00 0.08 92 1017.7
20260831091742 0 357 0.0 0.0 0.00 0.00 0.08
20260831090617 66 356 0.0 0.0 0.00 0.00 0.08 92 1017.7
20260831085938 65 358 0.0 0.0 0.00 0.00 0.08 92 1017.8
20260831085257 66 356 0.0 0.0 0.00 0.00 0.08 92 1017.9
20260831084616 66 355 0.0 0.0 0.00 0.00 0.08 92 1018.2
20260831083938 0 356 0.0 0.0 0.00 0.00 0.08
20260831083144 66 357 0.0 0.0 0.00 0.00 0.08 92 1018.1
20260831082504 65 356 0.0 0.0 0.00 0.00 0.08 92 1018.2
20260831081824 66 357 0.0 0.0 0.00 0.00 0.08 92 1018.1
20260831081145 0 355 0.0 0.0 0.00 0.00 0.08
20260831080355 66 355 0.0 0.0 0.00 0.00 0.08 92 1018.3
20260831075715 66 355 0.0 0.0 0.00 0.00 0.08 93 1018.4
20260831075035 66 356 0.0 0.0 0.00 0.00 0.07 93 1018.5